User: anonymous   Login
Location: Starry Hill Observatory
(46.8582°N, 122.3590°W)
Time: 12:17:40
(UTC-08:00)
Language:

Cosmos 1300 Rocket - Orbit

View from above orbital plane
View from above orbital plane
View from above satellite
View from above satellite

Ground track
Ground track

The orbit data is extracted from the following two-line orbital elements,

1 12786U 81082B   17022.22012186  .00000070  00000-0  53742-5 0  9990
2 12786  82.4896 105.2859 0018052  21.7216 338.4761 14.84663414913150
Epoch (UTC): 22 January 2017 05:16:58
Eccentricity: 0.0018052
inclination: 82.4896°
perigee height: 602 km
apogee height: 627 km
right ascension of ascending node: 105.2859°
argument of perigee: 21.7216°
revolutions per day: 14.84663414
mean anomaly at epoch: 338.4761°
orbit number at epoch: 91315

The dashed part of the orbit path shows where the satellite is in the earth's shadow,  

DLR